Time,TemperatureF,DewpointF,PressureIn,WindDirection,WindDirectionDegrees,WindSpeedMPH,WindSpeedGustMPH,Humidity,HourlyPrecipIn,Conditions,Clouds,dailyrainin,SoftwareType,DateUTC
2013-12-05 00:04:00,25.7,23.7,30.16,SSW,202,0.0,-999.0,92,-99.99,,,0.00,Acu-Link.com,2013-12-05 05:04:00,
2013-12-05 00:19:00,26.6,24.9,30.15,South,180,0.0,-999.0,93,-99.99,,,0.00,Acu-Link.com,2013-12-05 05:19:00,
2013-12-05 00:35:00,25.2,23.7,30.16,WNW,292,0.0,-999.0,94,-99.99,,,0.00,Acu-Link.com,2013-12-05 05:35:00,
2013-12-05 00:50:00,26.2,23.7,30.17,ESE,112,0.0,-999.0,90,-99.99,,,0.00,Acu-Link.com,2013-12-05 05:50:00,
2013-12-05 01:05:00,25.5,23.2,30.17,SSW,202,0.0,-999.0,91,-99.99,,,0.00,Acu-Link.com,2013-12-05 06:05:00,
2013-12-05 01:20:00,27.3,23.7,30.17,ESE,112,0.0,-999.0,86,-99.99,,,0.00,Acu-Link.com,2013-12-05 06:20:00,
2013-12-05 01:35:00,26.2,23.7,30.18,South,180,0.0,-999.0,90,-99.99,,,0.00,Acu-Link.com,2013-12-05 06:35:00,
2013-12-05 01:51:00,25.2,22.9,30.18,WSW,247,0.0,-999.0,91,-99.99,,,0.00,Acu-Link.com,2013-12-05 06:51:00,
2013-12-05 02:06:00,24.6,22.6,30.18,SSW,202,0.0,-999.0,92,-99.99,,,0.00,Acu-Link.com,2013-12-05 07:06:00,
2013-12-05 02:21:00,24.6,22.6,30.19,South,180,0.0,-999.0,92,-99.99,,,0.00,Acu-Link.com,2013-12-05 07:21:00,
2013-12-05 02:36:00,24.8,23.1,30.20,SW,225,0.0,-999.0,93,-99.99,,,0.00,Acu-Link.com,2013-12-05 07:36:00,
2013-12-05 02:52:00,24.3,22.6,30.20,SW,225,0.0,-999.0,93,-99.99,,,0.00,Acu-Link.com,2013-12-05 07:52:00,
2013-12-05 03:07:00,24.8,23.3,30.19,West,270,0.0,-999.0,94,-99.99,,,0.00,Acu-Link.com,2013-12-05 08:07:00,
2013-12-05 03:22:00,24.4,22.7,30.19,SSW,202,0.0,-999.0,93,-99.99,,,0.00,Acu-Link.com,2013-12-05 08:22:00,
2013-12-05 03:37:00,26.4,24.1,30.18,East,90,0.0,-999.0,91,-99.99,,,0.00,Acu-Link.com,2013-12-05 08:37:00,
2013-12-05 03:52:00,27.3,25.3,30.18,South,180,0.0,-999.0,92,-99.99,,,0.00,Acu-Link.com,2013-12-05 08:52:00,
2013-12-05 04:12:00,28.8,25.7,30.17,East,90,0.0,-999.0,88,-99.99,,,0.00,Acu-Link.com,2013-12-05 09:12:00,
2013-12-05 04:34:00,28.8,26.0,30.17,SW,225,0.0,-999.0,89,-99.99,,,0.00,Acu-Link.com,2013-12-05 09:34:00,
2013-12-05 05:01:00,28.8,26.0,30.18,West,270,0.0,-999.0,89,-99.99,,,0.00,Acu-Link.com,2013-12-05 10:01:00,
2013-12-05 05:22:00,29.8,26.7,30.19,WSW,247,0.0,-999.0,88,-99.99,,,0.00,Acu-Link.com,2013-12-05 10:22:00,
2013-12-05 05:38:00,29.8,26.7,30.19,West,270,0.0,-999.0,88,-99.99,,,0.00,Acu-Link.com,2013-12-05 10:38:00,
2013-12-05 05:55:00,30.2,27.4,30.19,NW,315,0.0,-999.0,89,-99.99,,,0.00,Acu-Link.com,2013-12-05 10:55:00,
2013-12-05 06:10:00,31.1,27.7,30.17,ESE,112,0.0,-999.0,87,-99.99,,,0.00,Acu-Link.com,2013-12-05 11:10:00,
2013-12-05 06:25:00,33.8,28.9,30.17,NNE,22,0.0,-999.0,82,-99.99,,,0.00,Acu-Link.com,2013-12-05 11:25:00,
2013-12-05 06:40:00,30.9,27.2,30.16,West,270,2.7,-999.0,86,-99.99,,,0.00,Acu-Link.com,2013-12-05 11:40:00,
2013-12-05 06:55:00,31.1,27.7,30.18,WSW,247,2.7,-999.0,87,-99.99,,,0.00,Acu-Link.com,2013-12-05 11:55:00,
2013-12-05 07:11:00,30.7,27.6,30.17,NNW,337,2.2,-999.0,88,-99.99,,,0.00,Acu-Link.com,2013-12-05 12:11:00,
2013-12-05 07:26:00,30.6,27.8,30.19,WSW,247,3.2,-999.0,89,-99.99,,,0.00,Acu-Link.com,2013-12-05 12:26:00,
2013-12-05 07:41:00,30.7,27.6,30.19,West,270,2.2,-999.0,88,-99.99,,,0.00,Acu-Link.com,2013-12-05 12:41:00,
2013-12-05 07:56:00,30.9,27.8,30.19,West,270,3.2,-999.0,88,-99.99,,,0.00,Acu-Link.com,2013-12-05 12:56:00,
2013-12-05 08:11:00,31.1,28.0,30.20,WNW,292,2.7,-999.0,88,-99.99,,,0.00,Acu-Link.com,2013-12-05 13:11:00,
2013-12-05 08:27:00,31.3,28.2,30.20,WNW,292,3.2,-999.0,88,-99.99,,,0.00,Acu-Link.com,2013-12-05 13:27:00,
2013-12-05 08:42:00,31.6,28.5,30.19,North,0,2.2,-999.0,88,-99.99,,,0.00,Acu-Link.com,2013-12-05 13:42:00,
2013-12-05 08:57:00,31.6,28.2,30.18,West,270,4.2,-999.0,87,-99.99,,,0.00,Acu-Link.com,2013-12-05 13:57:00,
2013-12-05 09:12:00,32.2,28.8,30.18,NNW,337,0.0,-999.0,87,-99.99,,,0.00,Acu-Link.com,2013-12-05 14:12:00,
2013-12-05 09:27:00,32.5,29.1,30.16,South,180,0.0,-999.0,87,-99.99,,,0.00,Acu-Link.com,2013-12-05 14:27:00,
2013-12-05 09:42:00,32.7,29.3,30.16,WNW,292,0.0,-999.0,87,-99.99,,,0.00,Acu-Link.com,2013-12-05 14:42:00,
2013-12-05 09:58:00,33.1,29.7,30.17,NNW,337,2.2,-999.0,87,-99.99,,,0.00,Acu-Link.com,2013-12-05 14:58:00,
2013-12-05 10:13:00,33.3,29.9,30.16,NNE,22,2.7,-999.0,87,-99.99,,,0.00,Acu-Link.com,2013-12-05 15:13:00,
2013-12-05 10:28:00,33.4,30.0,30.15,West,270,2.2,-999.0,87,-99.99,,,0.00,Acu-Link.com,2013-12-05 15:28:00,
2013-12-05 10:43:00,33.4,30.0,30.14,NNE,22,2.2,-999.0,87,-99.99,,,0.00,Acu-Link.com,2013-12-05 15:43:00,
2013-12-05 10:58:00,34.0,30.5,30.13,NNE,22,0.0,-999.0,87,-99.99,,,0.00,Acu-Link.com,2013-12-05 15:58:00,
2013-12-05 11:13:00,34.2,30.7,30.13,NW,315,3.2,-999.0,87,-99.99,,,0.00,Acu-Link.com,2013-12-05 16:13:00,
2013-12-05 11:29:00,34.3,30.8,30.12,WNW,292,4.7,-999.0,87,-99.99,,,0.00,Acu-Link.com,2013-12-05 16:29:00,
2013-12-05 11:44:00,34.7,31.2,30.13,WSW,247,2.7,-999.0,87,-99.99,,,0.00,Acu-Link.com,2013-12-05 16:44:00,
2013-12-05 11:59:00,34.5,31.6,30.13,NW,315,4.2,-999.0,89,-99.99,,,0.00,Acu-Link.com,2013-12-05 16:59:00,
2013-12-05 12:14:00,34.2,32.1,30.10,NNW,337,3.2,-999.0,92,-99.99,,,0.00,Acu-Link.com,2013-12-05 17:14:00,
2013-12-05 12:30:00,34.3,32.5,30.10,West,270,1.7,-999.0,93,-99.99,,,0.00,Acu-Link.com,2013-12-05 17:30:00,
2013-12-05 12:45:00,34.0,32.7,30.08,ESE,112,2.2,-999.0,95,-99.99,,,0.00,Acu-Link.com,2013-12-05 17:45:00,
2013-12-05 13:00:00,34.2,32.7,30.07,NNE,22,0.0,-999.0,94,-99.99,,,0.00,Acu-Link.com,2013-12-05 18:00:00,
2013-12-05 13:15:00,34.2,32.9,30.06,East,90,0.0,-999.0,95,-99.99,,,0.00,Acu-Link.com,2013-12-05 18:15:00,
2013-12-05 13:31:00,34.2,32.9,30.06,West,270,2.2,-999.0,95,-99.99,,,0.00,Acu-Link.com,2013-12-05 18:31:00,
2013-12-05 13:46:00,34.3,33.3,30.03,East,90,0.0,-999.0,96,-99.99,,,0.00,Acu-Link.com,2013-12-05 18:46:00,
2013-12-05 14:01:00,34.9,33.9,30.02,ESE,112,0.0,-999.0,96,-99.99,,,0.00,Acu-Link.com,2013-12-05 19:01:00,
2013-12-05 14:16:00,34.9,33.9,30.02,WNW,292,2.7,-999.0,96,-99.99,,,0.00,Acu-Link.com,2013-12-05 19:16:00,
2013-12-05 14:32:00,34.5,33.7,30.03,NW,315,3.7,-999.0,97,-99.99,,,0.00,Acu-Link.com,2013-12-05 19:32:00,
2013-12-05 14:47:00,34.3,33.5,30.02,WNW,292,5.3,-999.0,97,-99.99,,,0.00,Acu-Link.com,2013-12-05 19:47:00,
2013-12-05 15:02:00,34.3,33.5,30.03,WNW,292,3.7,-999.0,97,-99.99,,,0.00,Acu-Link.com,2013-12-05 20:02:00,
2013-12-05 15:17:00,34.3,33.8,30.03,NNE,22,2.7,-999.0,98,-99.99,,,0.00,Acu-Link.com,2013-12-05 20:17:00,
2013-12-05 15:32:00,34.3,33.8,30.02,NNE,22,1.1,-999.0,98,-99.99,,,0.00,Acu-Link.com,2013-12-05 20:32:00,
2013-12-05 15:48:00,34.3,33.8,30.01,SE,135,0.0,-999.0,98,-99.99,,,0.00,Acu-Link.com,2013-12-05 20:48:00,
2013-12-05 16:03:00,34.3,33.8,30.00,WNW,292,0.0,-999.0,98,-99.99,,,0.00,Acu-Link.com,2013-12-05 21:03:00,
2013-12-05 16:18:00,34.3,33.8,29.99,WSW,247,1.1,-999.0,98,-99.99,,,0.00,Acu-Link.com,2013-12-05 21:18:00,
2013-12-05 16:33:00,34.3,33.8,30.00,NNW,337,2.7,-999.0,98,-99.99,,,0.00,Acu-Link.com,2013-12-05 21:33:00,
2013-12-05 16:48:00,34.3,34.0,30.00,West,270,1.7,-999.0,99,-99.99,,,0.00,Acu-Link.com,2013-12-05 21:48:00,
2013-12-05 17:04:00,34.7,34.4,29.99,WNW,292,4.2,-999.0,99,-99.99,,,0.01,Acu-Link.com,2013-12-05 22:04:00,
2013-12-05 17:19:00,35.2,34.9,29.99,West,270,0.0,-999.0,99,-99.99,,,0.01,Acu-Link.com,2013-12-05 22:19:00,
2013-12-05 17:34:00,34.5,34.2,29.99,WNW,292,3.2,-999.0,99,-99.99,,,0.01,Acu-Link.com,2013-12-05 22:34:00,
2013-12-05 17:49:00,34.7,34.4,29.99,West,270,1.7,-999.0,99,-99.99,,,0.01,Acu-Link.com,2013-12-05 22:49:00,
2013-12-05 18:05:00,34.7,34.2,29.97,West,270,1.7,-999.0,98,-99.99,,,0.01,Acu-Link.com,2013-12-05 23:05:00,
2013-12-05 18:20:00,34.5,34.0,29.98,North,0,3.2,-999.0,98,-99.99,,,0.01,Acu-Link.com,2013-12-05 23:20:00,
2013-12-05 18:35:00,34.5,34.2,29.97,NW,315,2.7,-999.0,99,-99.99,,,0.01,Acu-Link.com,2013-12-05 23:35:00,
2013-12-05 18:50:00,34.3,34.0,29.96,West,270,1.7,-999.0,99,-99.99,,,0.02,Acu-Link.com,2013-12-05 23:50:00,
2013-12-05 19:06:00,34.5,34.2,29.97,WNW,292,2.2,-999.0,99,-99.99,,,0.03,Acu-Link.com,2013-12-06 00:06:00,
2013-12-05 19:21:00,35.4,35.1,29.96,West,270,2.7,-999.0,99,-99.99,,,0.03,Acu-Link.com,2013-12-06 00:21:00,
2013-12-05 19:37:00,35.1,34.8,29.95,WSW,247,2.2,-999.0,99,-99.99,,,0.03,Acu-Link.com,2013-12-06 00:37:00,
2013-12-05 19:52:00,35.6,35.3,29.93,East,90,0.0,-999.0,99,-99.99,,,0.03,Acu-Link.com,2013-12-06 00:52:00,
2013-12-05 20:07:00,34.7,34.2,29.93,North,0,3.7,-999.0,98,-99.99,,,0.03,Acu-Link.com,2013-12-06 01:07:00,
2013-12-05 20:22:00,35.2,34.9,29.92,SSW,202,0.0,-999.0,99,-99.99,,,0.03,Acu-Link.com,2013-12-06 01:22:00,
2013-12-05 20:37:00,34.5,34.2,29.93,West,270,4.2,-999.0,99,-99.99,,,0.03,Acu-Link.com,2013-12-06 01:37:00,
2013-12-05 20:52:00,34.5,34.2,29.91,West,270,3.7,-999.0,99,-99.99,,,0.03,Acu-Link.com,2013-12-06 01:52:00,
2013-12-05 21:07:00,34.3,34.0,29.91,West,270,4.7,-999.0,99,-99.99,,,0.03,Acu-Link.com,2013-12-06 02:07:00,
2013-12-05 21:22:00,34.7,34.4,29.90,North,0,2.7,-999.0,99,-99.99,,,0.03,Acu-Link.com,2013-12-06 02:22:00,
2013-12-05 21:39:00,34.7,34.4,29.89,WNW,292,1.7,-999.0,99,-99.99,,,0.03,Acu-Link.com,2013-12-06 02:39:00,
2013-12-05 21:54:00,34.5,34.2,29.89,NW,315,2.2,-999.0,99,-99.99,,,0.03,Acu-Link.com,2013-12-06 02:54:00,
2013-12-05 22:09:00,34.5,34.2,29.89,NW,315,3.7,-999.0,99,-99.99,,,0.03,Acu-Link.com,2013-12-06 03:09:00,
2013-12-05 22:24:00,34.7,34.4,29.89,NW,315,3.2,-999.0,99,-99.99,,,0.03,Acu-Link.com,2013-12-06 03:24:00,
2013-12-05 22:39:00,35.1,34.8,29.88,West,270,2.2,-999.0,99,-99.99,,,0.03,Acu-Link.com,2013-12-06 03:39:00,
2013-12-05 22:55:00,34.9,34.6,29.89,NW,315,0.0,-999.0,99,-99.99,,,0.03,Acu-Link.com,2013-12-06 03:55:00,
2013-12-05 23:10:00,35.2,34.9,29.89,West,270,1.7,-999.0,99,-99.99,,,0.03,Acu-Link.com,2013-12-06 04:10:00,
2013-12-05 23:25:00,37.0,36.7,29.87,SE,135,0.0,-999.0,99,-99.99,,,0.03,Acu-Link.com,2013-12-06 04:25:00,